Retour au catalogue

STARLINK-30617

ActifCommunicationsVLEO
NORAD 58104·PAYLOAD·🇺🇸 United States

Lancé Oct 21, 2023 depuis Vandenberg Space Force Base

Loading…

Prochains Passages (prochaines 24 heures)

TLE

FraisSource: CelesTrak SupGP

Époque: Sep 15, 2026, 02:52 UTC

1 58104C 23161H   26258.11993056  .00060812  00000+0  17964-2 0  2581
2 58104  53.1604   2.9820 0001130  77.7233 118.4017 15.34365953    11

Suivez STARLINK-30617 en temps réel avec AllMySat

Download on the App Store